STARLINK-1856, 47143

Orbit data source: Space-Track

STARLINK-1856, 47143 is a payload satellite owned by SpaceX/Seattle (US) in LEO that was launched on Wed, 25 Nov 2020 UTC via an FALCON 9 launch vehicle from the Air Force Eastern Test Range (AFETR). Payload-class satellites include a variety of spacecraft equipped with specific instruments for various scientific and technological missions. These include communications satellites like Starlink; space stations such as the ISS; scientific satellites like the Hubble; Earth observation satellites from companies like Planet Labs, Umbra, and HawkEye 360; GPS; miniature CubeSats for education and research; and military/defense satellites.

Loading next visibility...
Identifier
47143, 2020-088X
Orbit
LEO
Country
Flag of USUS
Related business
Manufacturer
SpaceX/Seattle
Mission
Partially operational Commercial Communications
Bus & Motor
STARLINK, Unknown motor
Mass
260 kg wet, ~248 kg dry
Launch date (UTC)
2020-11-25 (6 years ago)
Launch vehicle
FALCON 9
Launch site
Air Force Eastern Test Range (AFETR)
Object type
Payload
Rocket body
Debris
Shape & HBR
Box + 1 Pan, 10.1 m
Radar Cross Section
13.562 m², Large (>1 m²)

Expand to show TLE details & history
Last TLE update: 2 days ago

TLE from 2 days ago
0 STARLINK-1856
1 47143U 20088X   26171.50003471  .00008416  00000-0  69859-4 0  9994
2 47143  53.0432 131.9000 0005266  69.0339 170.0964 15.71204035  5966
Epoch: 2026-06-20T12:00Z
TLE epoch observation values (Epoch: 2026-06-20T12:00:02.998Z)
Latitude
-43.51001°
Longitude
-91.57306°
Altitude
373.54 km
Speed
7.683 km/s
True Right ascension
23h 48m 36s
True Declination
-43° 19' 43"
Sunlit
Object was in daylight at epoch
Visualization orbit readout
Latitude
Unknown
Longitude
Unknown
Altitude
Unknown
Speed
Unknown
Apparent Right ascension
Unknown
Apparent Declination
Unknown
Sunlit
N/A
Visualization observer readout
Local Sidereal Time
21:31:03
Azimuth
Unknown
Elevation
Unknown
Doppler factor
Unknown
Orbital elements
Apogee altitude
359.281 km
Perigee altitude
352.189 km
Semi-major axis
6,733.872 km
Eccentricity
0.00053
Inclination
53.0432°
RAAN
131.9°
Arg. of periapsis
69.0339°
True anomaly
170.10677°
Mean anomaly
170.0964°
Eccentric anomaly
170.10159°
Mean motion
3.92777 °/min
Orbital period
91.66 mins
BSTAR
0.000069859
Loading maneuver chart data...
Computing Atmospheric mass density...

Documentation

Showing up to 5 results
|